Tracking 28799 objects as of 18-Apr-2024
HD Live streaming from Space Station
objects crossing your sky now

BREEZE-M R/B

Track BREEZE-M R/B now!


NORAD ID: 39488
Int'l Code: 2013-077B
Perigee: 36,591.1 km
Apogee: 41,589.2 km
Inclination: 8.5 °
Period: 1,607.8 minutes
Semi major axis: 45461 km
RCS: Unknown
Launch date: December 26, 2013
Source: Commonwealth of Independent States (former USSR) (CIS)
Launch site: TYURATAM MISSILE AND SPACE COMPLEX (TTMTR)

Note: This is a ROCKET BODY
Your satellite tracking list
Your tracking list is empty




NASA's NSSDC Master Catalog

Two Line Element Set (TLE):
1 39488U 13077B   24108.55632846 -.00000189  00000-0  00000-0 0  9993
2 39488   8.4604  65.4938 0549715 166.4997 195.0479  0.89565867 33593
Source of the keplerian elements: AFSPC